When you browse on this site, cookies collect data to enhance your experience and personalize the content and advertising you see.
Visit our Privacy Policy to learn more. By continuing to use the site, you agree to this use of cookies and data.
  • En España
  • Lista de países
  • Para 7 días
  • Temperatura del agua
  • El tiempo en el mapa
  • Informadores
  • user-avatar
    Iniciar sesión

    Tiempo cada hora La Ligua

    Hoy, 1 Junio, Lunes

    Tiempo Temperatura Precipitaciones Viento Presión Humedad
    00:00 +9°C° 0 mm 0 mps 758 mmHg 87%
    01:00 +9°C° 0 mm 0 mps 758 mmHg 88%
    02:00 +9°C° 0 mm 0 mps 758 mmHg 87%
    03:00 +9°C° 0 mm 0 mps 758 mmHg 86%
    04:00 +9°C° 0 mm 0 mps 758 mmHg 86%
    05:00 +9°C° 0 mm 0 mps 758 mmHg 86%
    06:00 +9°C° 0 mm 0 mps 759 mmHg 86%
    07:00 +9°C° 0 mm 0 mps 759 mmHg 86%
    08:00 +12°C° 0 mm 0 mps 759 mmHg 75%
    09:00 +16°C° 0 mm 1 mps 759 mmHg 64%
    10:00 +21°C° 0 mm 1 mps 760 mmHg 53%
    11:00 +20°C° 0 mm 2 mps 759 mmHg 51%
    12:00 +21°C° 0 mm 2 mps 759 mmHg 48%
    13:00 +22°C° 0 mm 3 mps 759 mmHg 46%
    14:00 +21°C° 0 mm 2 mps 759 mmHg 49%
    15:00 +20°C° 0 mm 2 mps 759 mmHg 53%
    16:00 +19°C° 0 mm 2 mps 759 mmHg 56%
    17:00 +17°C° 0 mm 2 mps 759 mmHg 66%
    18:00 +14°C° 0 mm 1 mps 759 mmHg 76%
    19:00 +11°C° 0 mm 1 mps 759 mmHg 86%
    20:00 +11°C° 0 mm 1 mps 759 mmHg 85%
    21:00 +11°C° 0 mm 1 mps 759 mmHg 84%
    22:00 +11°C° 0 mm 1 mps 759 mmHg 83%
    23:00 +11°C° 0 mm 1 mps 759 mmHg 83%

    Mañana, 2 Junio, Martes

    Tiempo Temperatura Precipitaciones Viento Presión Humedad
    00:00 +10°C° 0 mm 1 mps 759 mmHg 83%
    01:00 +10°C° 0 mm 1 mps 758 mmHg 83%
    02:00 +10°C° 0 mm 1 mps 758 mmHg 84%
    03:00 +10°C° 0 mm 1 mps 758 mmHg 84%
    04:00 +9°C° 0 mm 1 mps 757 mmHg 85%
    05:00 +10°C° 0 mm 1 mps 757 mmHg 85%
    06:00 +10°C° 0 mm 1 mps 757 mmHg 84%
    07:00 +10°C° 0 mm 1 mps 757 mmHg 84%
    08:00 +13°C° 0 mm 1 mps 757 mmHg 74%
    09:00 +16°C° 0 mm 1 mps 757 mmHg 64%
    10:00 +20°C° 0 mm 1 mps 757 mmHg 54%
    11:00 +19°C° 0 mm 2 mps 756 mmHg 55%
    12:00 +19°C° 0 mm 3 mps 756 mmHg 57%
    13:00 +19°C° 0 mm 3 mps 755 mmHg 59%
    14:00 +18°C° 0 mm 3 mps 755 mmHg 64%
    15:00 +17°C° 0 mm 3 mps 755 mmHg 69%
    16:00 +16°C° 0 mm 3 mps 755 mmHg 74%
    17:00 +15°C° 0 mm 2 mps 755 mmHg 80%
    18:00 +13°C° 0 mm 2 mps 755 mmHg 87%
    19:00 +12°C° 0 mm 1 mps 755 mmHg 94%
    20:00 +12°C° 0 mm 1 mps 754 mmHg 95%
    21:00 +12°C° 0 mm 1 mps 754 mmHg 95%
    22:00 +12°C° 0 mm 1 mps 754 mmHg 95%
    23:00 +11°C° 0.1 mm 1 mps 753 mmHg 95%

    Pasado mañana, 3 Junio, Miércoles

    Tiempo Temperatura Precipitaciones Viento Presión Humedad
    00:00 +10°C° 0.1 mm 1 mps 753 mmHg 94%
    01:00 +10°C° 0.1 mm 1 mps 752 mmHg 94%
    02:00 +9°C° 2.3 mm 2 mps 752 mmHg 94%
    03:00 +9°C° 2.3 mm 2 mps 752 mmHg 95%
    04:00 +10°C° 2.3 mm 3 mps 752 mmHg 95%
    05:00 +9°C° 3.2 mm 2 mps 753 mmHg 93%
    06:00 +8°C° 3.2 mm 2 mps 753 mmHg 91%
    07:00 +8°C° 3.2 mm 2 mps 754 mmHg 89%
    08:00 +9°C° 0.6 mm 3 mps 754 mmHg 82%
    09:00 +10°C° 0.6 mm 3 mps 754 mmHg 76%
    10:00 +11°C° 0.6 mm 3 mps 755 mmHg 70%
    11:00 +11°C° 0.1 mm 3 mps 755 mmHg 65%
    12:00 +13°C° 0.1 mm 2 mps 755 mmHg 61%
    13:00 +14°C° 0.1 mm 2 mps 755 mmHg 57%
    14:00 +14°C° 0 mm 2 mps 755 mmHg 55%
    15:00 +14°C° 0 mm 1 mps 755 mmHg 53%
    16:00 +14°C° 0 mm 1 mps 755 mmHg 52%
    17:00 +13°C° 0 mm 1 mps 756 mmHg 56%
    18:00 +13°C° 0 mm 1 mps 756 mmHg 61%
    19:00 +12°C° 0 mm 2 mps 757 mmHg 66%
    20:00 +12°C° 0 mm 1 mps 757 mmHg 69%
    21:00 +11°C° 0 mm 1 mps 757 mmHg 71%
    22:00 +11°C° 0 mm 1 mps 758 mmHg 74%
    23:00 +10°C° 0 mm 1 mps 758 mmHg 75%

    4 Junio, Jueves

    Tiempo Temperatura Precipitaciones Viento Presión Humedad
    00:00 +9°C° 0 mm 1 mps 758 mmHg 76%
    01:00 +9°C° 0 mm 1 mps 758 mmHg 77%
    02:00 +9°C° 0 mm 1 mps 758 mmHg 74%
    03:00 +8°C° 0 mm 0 mps 758 mmHg 72%
    04:00 +7°C° 0 mm 0 mps 758 mmHg 69%
    05:00 +7°C° 0 mm 0 mps 758 mmHg 72%
    06:00 +7°C° 0 mm 0 mps 759 mmHg 75%
    07:00 +7°C° 0 mm 0 mps 759 mmHg 77%
    08:00 +9°C° 0 mm 0 mps 759 mmHg 67%
    09:00 +11°C° 0 mm 0 mps 760 mmHg 57%
    10:00 +14°C° 0 mm 0 mps 760 mmHg 47%
    11:00 +15°C° 0 mm 1 mps 759 mmHg 46%
    12:00 +16°C° 0 mm 1 mps 759 mmHg 44%
    13:00 +17°C° 0 mm 2 mps 759 mmHg 42%
    14:00 +16°C° 0 mm 2 mps 759 mmHg 47%
    15:00 +16°C° 0 mm 2 mps 759 mmHg 53%
    16:00 +15°C° 0 mm 2 mps 760 mmHg 58%
    17:00 +14°C° 0 mm 1 mps 760 mmHg 65%
    18:00 +12°C° 0 mm 1 mps 760 mmHg 72%
    19:00 +10°C° 0 mm 0 mps 761 mmHg 79%
    20:00 +10°C° 0 mm 0 mps 761 mmHg 76%
    21:00 +11°C° 0 mm 1 mps 761 mmHg 73%
    22:00 +11°C° 0 mm 1 mps 761 mmHg 70%
    23:00 +10°C° 0 mm 1 mps 760 mmHg 70%

    5 Junio, Viernes

    Tiempo Temperatura Precipitaciones Viento Presión Humedad
    00:00 +10°C° 0 mm 1 mps 760 mmHg 70%
    01:00 +10°C° 0 mm 1 mps 760 mmHg 69%
    02:00 +9°C° 0 mm 1 mps 760 mmHg 66%
    03:00 +9°C° 0 mm 1 mps 759 mmHg 63%
    04:00 +9°C° 0 mm 1 mps 759 mmHg 60%
    05:00 +9°C° 0 mm 1 mps 759 mmHg 56%
    06:00 +9°C° 0 mm 1 mps 759 mmHg 51%
    07:00 +10°C° 0 mm 1 mps 759 mmHg 47%
    08:00 +13°C° 0 mm 1 mps 758 mmHg 39%
    09:00 +16°C° 0 mm 1 mps 758 mmHg 31%
    10:00 +20°C° 0 mm 1 mps 758 mmHg 23%
    11:00 +21°C° 0 mm 1 mps 758 mmHg 22%
    12:00 +22°C° 0 mm 1 mps 757 mmHg 21%
    13:00 +23°C° 0 mm 2 mps 757 mmHg 20%
    14:00 +21°C° 0 mm 2 mps 757 mmHg 25%
    15:00 +20°C° 0 mm 2 mps 757 mmHg 31%
    16:00 +19°C° 0 mm 2 mps 756 mmHg 36%
    17:00 +19°C° 0 mm 1 mps 756 mmHg 40%
    18:00 +16°C° 0 mm 1 mps 756 mmHg 43%
    19:00 +14°C° 0 mm 1 mps 756 mmHg 47%
    20:00 +13°C° 0 mm 1 mps 756 mmHg 48%
    21:00 +13°C° 0 mm 1 mps 756 mmHg 49%
    22:00 +12°C° 0 mm 1 mps 756 mmHg 49%
    23:00 +12°C° 0 mm 1 mps 756 mmHg 52%

    6 Junio, Sábado

    Tiempo Temperatura Precipitaciones Viento Presión Humedad
    00:00 +12°C° 0 mm 1 mps 756 mmHg 55%
    01:00 +11°C° 0 mm 1 mps 756 mmHg 58%
    02:00 +11°C° 0 mm 1 mps 756 mmHg 62%
    03:00 +10°C° 0 mm 1 mps 756 mmHg 65%
    04:00 +10°C° 0 mm 1 mps 756 mmHg 69%
    05:00 +10°C° 0 mm 1 mps 756 mmHg 71%
    06:00 +10°C° 0 mm 1 mps 756 mmHg 74%
    07:00 +10°C° 0 mm 1 mps 757 mmHg 77%
    08:00 +12°C° 0 mm 1 mps 757 mmHg 69%
    09:00 +14°C° 0 mm 1 mps 757 mmHg 61%
    10:00 +16°C° 0 mm 1 mps 758 mmHg 53%
    11:00 +18°C° 0 mm 1 mps 758 mmHg 53%
    12:00 +17°C° 0 mm 2 mps 757 mmHg 53%
    13:00 +18°C° 0 mm 3 mps 757 mmHg 52%
    14:00 +17°C° 0 mm 3 mps 757 mmHg 56%
    15:00 +17°C° 0 mm 2 mps 758 mmHg 59%
    16:00 +16°C° 0 mm 2 mps 758 mmHg 62%
    17:00 +15°C° 0 mm 1 mps 758 mmHg 68%
    18:00 +13°C° 0 mm 1 mps 758 mmHg 74%
    19:00 +12°C° 0 mm 1 mps 758 mmHg 79%
    20:00 +12°C° 0 mm 1 mps 758 mmHg 78%
    21:00 +12°C° 0 mm 1 mps 758 mmHg 77%
    22:00 +12°C° 0 mm 1 mps 758 mmHg 77%
    23:00 +12°C° 0 mm 1 mps 758 mmHg 74%
    Mostrar más